Hot Springs, VA

11:57 PM EDT on March 24, 2017 (GMT -0400)
Ingalls

Weather History for KHSP - February, 2013

Change the Weather History Date:

Tuesday, February 26, 2013

  Actual Average Record
Temperature  
Mean Temperature 28 °F -  
Max Temperature 35 °F 38 °F 57 °F (1998)
Min Temperature 23 °F 23 °F 12 °F (2014)
Degree Days  
Heating Degree Days 37    
Moisture  
Dew Point 25 °F    
Average Humidity 90    
Maximum Humidity 100    
Minimum Humidity 69    
Precipitation  
Precipitation 0.57 in - - ()
Sea Level Pressure  
Sea Level Pressure 29.80 in    
Wind  
Wind Speed 9 mph (ESE)    
Max Wind Speed 18 mph    
Max Gust Speed 24 mph    
Visibility 4 miles    
Events Fog , Rain , Snow    
Averages and records for this station are not official NWS values.
T = Trace of Precipitation, MM = Missing Value Source: NWS Daily Summary

Daily Weather History Graph

Daily Weather History Graph

Search for Another Location

Airport or City:

Trip Planner

Search our weather history database for the weather conditions in past years. The results will help you decide how hot, cold, wet, or windy it might be!

Date:

Astronomy

Feb. 26, 2013 Rise Set
Actual Time 6:54 AM EST 6:10 PM EST
Civil Twilight 6:28 AM EST 6:36 PM EST
Nautical Twilight 5:57 AM EST 7:07 PM EST
Astronomical Twilight 5:27 AM EST 7:37 PM EST
Moon 7:22 PM EST (2/26) 6:58 AM EST (2/26)
Length of Visible Light 12h 08m
Length of Day
11h 15m
Full, 99% of the Moon is Illuminated
Feb 26
Full
Mar 4
Last Quarter
Mar 11
New
Mar 19
First Quarter
Mar 27
Full

Hourly Weather History & Observations

Time (EST) Temp. Windchill Dew Point Humidity Pressure Visibility Wind Dir Wind Speed Gust Speed Precip Events Conditions
12:15 AM 24.8 °F 16.9 °F 15.8 °F 69% 30.04 in 10.0 mi SE 6.9 mph - N/A   Scattered Clouds
12:35 AM 24.8 °F 14.0 °F 15.8 °F 69% 30.05 in 10.0 mi SE 11.5 mph 16.1 mph N/A   Mostly Cloudy
12:55 AM 24.8 °F 14.0 °F 15.8 °F 69% 30.03 in 10.0 mi SE 11.5 mph - N/A   Scattered Clouds
1:15 AM 24.8 °F 13.4 °F 15.8 °F 69% 30.04 in 10.0 mi ESE 12.7 mph - N/A   Clear
1:35 AM 24.8 °F 14.0 °F 15.8 °F 69% 30.02 in 10.0 mi ESE 11.5 mph - N/A   Clear
1:55 AM 24.8 °F 14.0 °F 15.8 °F 69% 30.03 in 10.0 mi ESE 11.5 mph - N/A   Clear
2:15 AM 24.8 °F 12.9 °F 17.6 °F 74% 30.01 in 10.0 mi ESE 13.8 mph - N/A   Clear
2:35 AM 24.8 °F 12.9 °F 17.6 °F 74% 30.00 in 10.0 mi ESE 13.8 mph - N/A   Clear
2:55 AM 23.0 °F 10.6 °F 17.6 °F 80% 29.99 in 10.0 mi East 13.8 mph - N/A   Clear
3:15 AM 23.0 °F 10.6 °F 17.6 °F 80% 29.99 in 10.0 mi ESE 13.8 mph 18.4 mph N/A   Clear
3:35 AM 23.0 °F 10.6 °F 17.6 °F 80% 29.98 in 10.0 mi East 13.8 mph 17.3 mph N/A   Clear
3:55 AM 23.0 °F 12.4 °F 17.6 °F 80% 29.99 in 10.0 mi East 10.4 mph - N/A   Clear
4:15 AM 23.0 °F 12.4 °F 17.6 °F 80% 29.98 in 10.0 mi ESE 10.4 mph - N/A   Scattered Clouds
4:35 AM 24.8 °F 14.0 °F 17.6 °F 74% 29.97 in 10.0 mi ESE 11.5 mph - N/A   Overcast
4:55 AM 24.8 °F 14.0 °F 17.6 °F 74% 29.97 in 10.0 mi ESE 11.5 mph - N/A   Overcast
5:15 AM 24.8 °F 13.4 °F 17.6 °F 74% 29.96 in 10.0 mi East 12.7 mph - N/A   Overcast
5:35 AM 24.8 °F 14.0 °F 17.6 °F 74% 29.97 in 10.0 mi East 11.5 mph - N/A   Overcast
5:55 AM 24.8 °F 14.6 °F 17.6 °F 74% 29.97 in 10.0 mi East 10.4 mph - N/A   Overcast
6:15 AM 24.8 °F 15.3 °F 17.6 °F 74% 29.96 in 10.0 mi East 9.2 mph - N/A   Overcast
6:35 AM 23.0 °F 13.1 °F 17.6 °F 80% 29.97 in 10.0 mi East 9.2 mph - N/A   Overcast
6:55 AM 23.0 °F 10.6 °F 17.6 °F 80% 29.95 in 10.0 mi East 13.8 mph 19.6 mph N/A   Overcast
7:15 AM 23.0 °F 11.7 °F 17.6 °F 80% 29.96 in 10.0 mi East 11.5 mph 20.7 mph N/A   Overcast
7:35 AM 23.0 °F 11.1 °F 17.6 °F 80% 29.96 in 10.0 mi ESE 12.7 mph 20.7 mph N/A   Overcast
7:55 AM 23.0 °F 11.1 °F 17.6 °F 80% 29.95 in 10.0 mi East 12.7 mph 18.4 mph N/A   Overcast
8:15 AM 23.0 °F 11.1 °F 17.6 °F 80% 29.95 in 10.0 mi East 12.7 mph 19.6 mph N/A   Overcast
8:35 AM 23.0 °F 10.6 °F 19.4 °F 86% 29.94 in 10.0 mi East 13.8 mph 19.6 mph N/A   Overcast
8:55 AM 23.0 °F 10.6 °F 19.4 °F 86% 29.95 in 10.0 mi East 13.8 mph - N/A   Overcast
9:15 AM 23.0 °F 10.1 °F 19.4 °F 86% 29.93 in 10.0 mi East 15.0 mph 23.0 mph N/A   Overcast
9:35 AM 23.0 °F 10.1 °F 19.4 °F 86% 29.91 in 10.0 mi East 15.0 mph 24.2 mph N/A   Overcast
9:55 AM 24.8 °F 11.9 °F 21.2 °F 86% 29.90 in 7.0 mi East 16.1 mph 21.9 mph N/A   Overcast
10:15 AM 24.8 °F 11.1 °F 21.2 °F 86% 29.89 in 7.0 mi East 18.4 mph - N/A   Overcast
10:35 AM 23.0 °F 11.1 °F 21.2 °F 93% 29.88 in 5.0 mi East 12.7 mph 21.9 mph N/A   Overcast
10:55 AM 23.0 °F 10.6 °F 23.0 °F 100% 29.88 in 4.0 mi East 13.8 mph 21.9 mph N/A   Overcast
11:15 AM 24.8 °F 12.9 °F 23.0 °F 93% 29.88 in 1.8 mi East 13.8 mph 18.4 mph N/A   Overcast
11:35 AM 24.8 °F 12.4 °F 24.8 °F 100% 29.86 in 0.2 mi East 15.0 mph 20.7 mph 0.01 in   Overcast
11:55 AM 24.8 °F 11.1 °F 24.8 °F 100% 29.83 in 0.2 mi East 18.4 mph 24.2 mph N/A   Overcast
12:15 PM 24.8 °F 12.9 °F 24.8 °F 100% 29.81 in 0.2 mi East 13.8 mph 20.7 mph N/A   Overcast
12:35 PM 24.8 °F 13.4 °F 24.8 °F 100% 29.80 in 0.2 mi East 12.7 mph 23.0 mph N/A   Overcast
12:55 PM 26.6 °F 15.7 °F 26.6 °F 100% 29.77 in 0.2 mi East 12.7 mph 20.7 mph N/A   Overcast
1:15 PM 26.6 °F 14.7 °F 26.6 °F 100% 29.74 in 0.2 mi East 15.0 mph 20.7 mph 0.01 in   Overcast
1:35 PM 28.4 °F 17.0 °F 28.4 °F 100% 29.72 in 0.2 mi East 15.0 mph 23.0 mph 0.03 in   Overcast
1:55 PM 28.4 °F 18.5 °F 28.4 °F 100% 29.72 in 0.2 mi East 11.5 mph 19.6 mph 0.01 in   Overcast
2:15 PM 28.4 °F 18.5 °F 28.4 °F 100% 29.70 in 0.2 mi East 11.5 mph 17.3 mph 0.02 in   Overcast
2:35 PM 28.4 °F 18.0 °F 28.4 °F 100% 29.68 in 0.2 mi East 12.7 mph 18.4 mph 0.04 in   Overcast
2:55 PM 28.4 °F 19.7 °F 28.4 °F 100% 29.66 in 0.2 mi East 9.2 mph - N/A   Overcast
3:15 PM 30.2 °F - 30.2 °F 100% 29.64 in 0.2 mi Calm Calm - 0.01 in   Overcast
3:35 PM 30.2 °F - 30.2 °F 100% 29.63 in 0.2 mi Calm Calm - 0.05 in   Overcast
3:55 PM 30.2 °F - 30.2 °F 100% 29.61 in 0.2 mi Calm Calm - N/A   Overcast
4:15 PM 30.2 °F - 30.2 °F 100% 29.61 in 0.2 mi Calm Calm - 0.06 in   Overcast
4:35 PM 30.2 °F - 30.2 °F 100% 29.59 in 0.2 mi Calm Calm - 0.16 in Rain Light Freezing Rain
4:55 PM 30.2 °F - 30.2 °F 100% 29.60 in 0.2 mi Calm Calm - 0.02 in Rain Light Freezing Rain
5:15 PM 30.2 °F - 30.2 °F 100% 29.63 in 0.2 mi Calm Calm - 0.11 in Snow Light Snow
5:35 PM 30.2 °F - 30.2 °F 100% 29.60 in 0.2 mi Calm Calm - 0.18 in   Overcast
5:55 PM 30.2 °F - 30.2 °F 100% 29.61 in 0.2 mi Calm Calm - 0.02 in   Overcast
6:15 PM 30.2 °F - 30.2 °F 100% 29.60 in 0.2 mi Calm Calm - 0.02 in   Overcast
6:35 PM 30.2 °F - 30.2 °F 100% 29.60 in 0.2 mi Calm Calm - 0.03 in Snow Light Snow
6:55 PM 32.0 °F - 32.0 °F 100% 29.60 in 0.2 mi Calm Calm - N/A Snow Light Snow
7:15 PM 32.0 °F - 32.0 °F 100% 29.59 in 0.2 mi Calm Calm - N/A Snow Light Snow
7:35 PM 32.0 °F - 32.0 °F 100% 29.57 in 0.2 mi Calm Calm - N/A Snow Heavy Snow
7:55 PM 32.0 °F - 32.0 °F 100% 29.59 in 0.2 mi Calm Calm - N/A Snow Light Snow
8:15 PM 33.8 °F - 33.8 °F 100% 29.59 in 0.2 mi Calm Calm - 0.01 in Snow Light Snow
8:35 PM 33.8 °F - 33.8 °F 100% 29.59 in 0.2 mi Calm Calm - 0.01 in Snow Light Snow
8:55 PM 33.8 °F - 33.8 °F 100% 29.60 in 0.2 mi Calm Calm - N/A Snow Light Snow
9:15 PM 33.8 °F - 33.8 °F 100% 29.60 in 0.2 mi Calm Calm - 0.01 in Snow Light Snow
9:35 PM 33.8 °F - 33.8 °F 100% 29.60 in 0.2 mi Calm Calm - 0.02 in Snow Light Snow
9:55 PM 33.8 °F - 33.8 °F 100% 29.60 in 0.2 mi Calm Calm - 0.01 in Snow Light Snow
10:15 PM 33.8 °F - 33.8 °F 100% 29.60 in 0.2 mi Calm Calm - 0.02 in Snow Light Snow
10:35 PM 33.8 °F - 33.8 °F 100% 29.59 in 0.2 mi Calm Calm - 0.03 in Fog Fog
10:55 PM 33.8 °F - 33.8 °F 100% 29.60 in 0.2 mi Calm Calm - N/A Fog Fog
11:15 PM 33.8 °F - 33.8 °F 100% 29.59 in 0.2 mi Calm Calm - N/A Snow Light Snow
11:35 PM 33.8 °F - 33.8 °F 100% 29.58 in 0.2 mi Calm Calm - 0.01 in Fog Fog
11:55 PM 35.6 °F - 35.6 °F 100% 29.58 in 0.2 mi Calm Calm - N/A Fog Fog